Back to catalog

STARLINK-33816

AliveCommunicationsVLEO
NORAD 63677·PAYLOAD·🇺🇸 United States

Launched Apr 28, 2025 from Cape Canaveral Space Force Station

Loading…

Next Passes (next 24 hours)

TLE

FreshSource: CelesTrak SupGP

Epoch: Sep 14, 2026, 21:02 UTC

1 63677C 25085P   26257.87687500  .00051527  00000+0  18671-2 0  2573
2 63677  43.0013  42.6324 0001473 277.2181  21.4521 15.27538938    13

Track STARLINK-33816 in real time with AllMySat

Download on the App Store